{"data":{"norad_id":68992,"intl_designator":"2026-100N","name":"YAM-16","alt_names":[],"object_type":"PAYLOAD","status":"ACTIVE","operator":null,"country":"US","launch_date":"2026-05-03","launch_site_code":"AFWTR","launch_vehicle":null,"mission":null,"orbit_class":"UNKNOWN","rcs_meters":null,"size_class":null,"mass_kg":null,"dimensions":null,"purposes":[],"wikipedia_slug":null,"has_3d_model":false,"image_url":null,"decayed_at":null,"tle_current":{"epoch":"2026-09-20T03:27:35.824032Z","epoch_age_seconds":50011,"freshness":"FRESH","line1":"1 68992U 26100N   26263.14416463  .00000948  00000+0  99843-4 0  9998","line2":"2 68992  97.7234 158.7215 0003259 161.8477 198.2859 14.91669207 20852","mean_motion":14.91669207,"eccentricity":0.0003259,"inclination_deg":97.7234,"raan_deg":158.7215,"arg_perigee_deg":161.8477,"mean_anomaly_deg":198.2859,"bstar":9.9843e-5,"rev_number":2085,"period_min":96.536148446483,"perigee_km":590.45864735944,"apogee_km":595.00225876535,"semimajor_km":6970.8674530624,"source":"CELESTRAK","updated_at":"2026-09-20T09:00:24.601935Z"}}}